20050707,000022,703928,32.826541,-119.112042,17.8,16.574,33.293,42.529,708.87,0.0,3.011,16.220,16.184, NaN,24.304,   NaN,14.56,1012.22,99.22,14.90,282.4,277.5,5.6,11.1,283.0,306.9,7.2,11.8,NaN, NaN,19.4,53.1,56.3,1120694424,1120694423,1,10.7,000023,000023,58.0,32.826493,-119.112190,10.29,NaN,NaN,16.578, NaN,NaN,NaN, NaN, NaN
20050707,000052,703958,32.827330,-119.110568,17.7,16.569,33.294,42.526,723.58,0.0,3.030,16.216,16.176, NaN,24.306,   NaN,14.56,1012.24,99.22,14.89,285.6,278.8,6.0,10.8,290.6,307.3,7.3,11.5,NaN, NaN,19.6,58.0,52.8,1120694454,1120694453,1,10.9,000053,000053,55.8,32.827271,-119.110708,10.25,NaN,NaN,16.573, NaN,NaN,NaN, NaN, NaN
20050707,000122,703987,32.828098,-119.109078,17.7,16.561,33.287,42.511,757.64,0.0,3.049,16.212,16.174, NaN,24.302,   NaN,14.61,1012.15,99.34,14.92,284.2,281.2,7.4,11.6,298.6,311.0,8.2,12.0,NaN, NaN,19.3,49.9,56.8,1120694484,1120694483,1,10.2,000083,000083,57.3,32.828038,-119.109215,10.45,NaN,NaN,16.565, NaN,NaN,NaN, NaN, NaN
20050707,000153,704019,32.828881,-119.107610,17.9,16.554,33.298,42.517,763.05,0.0,3.086,16.208,16.173, NaN,24.312,   NaN,14.52,1012.26,99.19,14.89,283.9,277.5,5.7,10.9,284.1,306.0,7.1,11.7,NaN, NaN,19.5,47.8,54.2,1120694514,1120694514,1,10.9,000113,000114,57.8,32.828866,-119.107705,10.50,NaN,NaN,16.558, NaN,NaN,NaN, NaN, NaN
20050707,000222,704048,32.829653,-119.106107,17.8,16.553,33.295,42.512,757.39,0.0,3.030,16.205,16.167, NaN,24.310,   NaN,14.71,1012.22,99.59,14.96,289.5,279.4,4.7,10.4,275.6,306.7,6.0,11.1,NaN, NaN,18.7,61.8,59.1,1120694544,1120694543,1,10.6,000143,000143,57.6,32.829606,-119.106255,10.40,NaN,NaN,16.557, NaN,NaN,NaN, NaN, NaN
20050707,000252,704078,32.830468,-119.104632,17.6,16.550,33.295,42.510,736.93,0.0,3.086,16.198,16.158, NaN,24.311,   NaN,14.60,1012.26,99.29,14.93,290.6,277.2,3.1,11.0,254.0,305.9,5.8,11.8,NaN, NaN,18.7,56.0,54.9,1120694574,1120694574,1,10.4,000173,000174,55.8,32.830428,-119.104723,10.37,NaN,NaN,16.554, NaN,NaN,NaN, NaN, NaN
20050707,000322,704108,32.831240,-119.103153,17.7,16.544,33.296,42.505,746.18,0.0,3.143,16.191,16.151, NaN,24.313,   NaN,14.62,1012.18,99.38,14.93,317.9,275.5,2.8,10.0,252.7,301.6,5.7,11.1,NaN, NaN,18.8,66.1,56.3,1120694604,1120694603,1,10.7,000203,000203,55.5,32.831186,-119.103300,10.42,NaN,NaN,16.548, NaN,NaN,NaN, NaN, NaN
20050707,000353,704139,32.832025,-119.101665,17.6,16.536,33.299,42.500,766.37,0.0,3.086,16.185,16.145, NaN,24.317,   NaN,14.69,1012.22,99.51,14.95,290.8,277.6,3.4,9.8,260.5,303.2,6.4,10.7,NaN, NaN,19.7,53.8,57.9,1120694634,1120694633,1,10.7,000233,000233,57.1,32.831971,-119.101810,10.45,NaN,NaN,16.540, NaN,NaN,NaN, NaN, NaN
20050707,000422,704167,32.832806,-119.100183,17.9,16.528,33.297,42.491,884.17,0.0,3.068,16.181,16.143, NaN,24.318,   NaN,14.66,1012.10,99.37,14.96,280.0,280.6,6.1,10.8,282.6,308.4,8.1,11.3,NaN, NaN,19.0,60.4,59.0,1120694664,1120694664,1,10.9,000263,000264,56.5,32.832783,-119.100282,10.23,NaN,NaN,16.532, NaN,NaN,NaN, NaN, NaN
20050707,000452,704197,32.833568,-119.098705,17.7,16.521,33.293,42.480,992.97,0.0,3.200,16.176,16.137, NaN,24.316,   NaN,14.57,1012.11,99.24,14.90,273.4,277.7,5.1,11.4,277.6,307.6,7.6,12.1,NaN, NaN,18.7,60.9,59.4,1120694694,1120694693,1,10.6,000293,000293,57.1,32.833516,-119.098858,10.41,NaN,NaN,16.525, NaN,NaN,NaN, NaN, NaN
20050707,000523,704228,32.834373,-119.097175,17.8,16.517,33.293,42.476,954.54,0.0,3.143,16.172,16.132, NaN,24.317,   NaN,14.57,1012.16,99.34,14.92,263.4,275.9,3.0,10.5,263.0,304.1,6.4,11.5,NaN, NaN,19.1,61.1,58.8,1120694724,1120694724,1,10.3,000324,000324,57.5,32.834328,-119.097330,10.35,NaN,NaN,16.521, NaN,NaN,NaN, NaN, NaN
20050707,000552,704258,32.835126,-119.095742,17.9,16.510,33.292,42.467,873.06,0.0,3.086,16.169,16.127, NaN,24.317,   NaN,14.64,1012.16,99.50,14.95,288.6,273.8,2.6,10.3,251.8,301.5,6.1,11.4,NaN, NaN,19.8,58.6,58.9,1120694754,1120694753,1,11.0,000353,000353,57.3,32.835075,-119.095895,10.45,NaN,NaN,16.514, NaN,NaN,NaN, NaN, NaN
20050707,000622,704288,32.835915,-119.094250,17.7,16.511,33.286,42.462,815.46,0.0,2.898,16.166,16.124, NaN,24.313,   NaN,14.74,1012.18,99.62,14.98,292.9,274.0,3.0,9.6,257.7,300.2,6.3,10.9,NaN, NaN,19.4,58.4,62.3,1120694784,1120694783,1,10.9,000383,000383,56.1,32.835860,-119.094403,10.54,NaN,NaN,16.515, NaN,NaN,NaN, NaN, NaN
20050707,000652,704317,32.836713,-119.092773,17.6,16.506,33.286,42.457,800.13,0.0,2.841,16.156,16.118, NaN,24.314,   NaN,14.74,1012.13,99.49,15.01,268.5,277.0,4.9,10.5,277.0,304.3,7.5,11.4,NaN, NaN,19.2,71.1,62.8,1120694814,1120694813,1,10.5,000413,000413,55.8,32.836660,-119.092918,10.44,NaN,NaN,16.510, NaN,NaN,NaN, NaN, NaN
20050707,000722,704347,32.837495,-119.091305,17.7,16.502,33.276,42.443,896.77,0.0,2.917,16.151,16.113, NaN,24.307,   NaN,14.62,1012.06,99.34,14.95,277.0,276.1,4.5,11.5,274.8,306.2,7.1,12.3,NaN, NaN,19.4,55.9,61.1,1120694844,1120694843,1,10.8,000443,000443,55.3,32.837448,-119.091452,10.52,NaN,NaN,16.506, NaN,NaN,NaN, NaN, NaN
20050707,000753,704379,32.838323,-119.089777,17.5,16.494,33.285,42.445,957.45,0.0,3.030,16.146,16.106, NaN,24.316,   NaN,14.63,1012.12,99.44,14.94,299.2,272.7,2.4,10.7,251.0,301.8,5.8,11.9,NaN, NaN,18.8,47.6,52.0,1120694874,1120694874,1,11.0,000474,000474,57.1,32.838271,-119.089925,10.37,NaN,NaN,16.498, NaN,NaN,NaN, NaN, NaN
20050707,000822,704408,32.839073,-119.088330,17.9,16.483,33.287,42.437,961.32,0.0,3.143,16.139,16.097, NaN,24.320,   NaN,14.71,1012.09,99.63,14.97,281.8,275.0,2.8,10.2,255.4,302.3,5.9,11.3,NaN, NaN,19.1,53.7,60.0,1120694904,1120694903,1,10.9,000503,000503,56.0,32.839021,-119.088480,10.52,NaN,NaN,16.487, NaN,NaN,NaN, NaN, NaN
20050707,000853,704438,32.839875,-119.086873,17.7,16.477,33.284,42.427,1039.90,0.0,3.162,16.127,16.086, NaN,24.319,   NaN,14.71,1012.16,99.52,14.99,294.4,275.3,3.5,10.3,270.2,303.0,5.5,11.3,NaN, NaN,18.8,51.3,54.0,1120694934,1120694934,1,10.5,000533,000534,57.4,32.839850,-119.086973,10.27,NaN,NaN,16.481, NaN,NaN,NaN, NaN, NaN
20050707,000922,704468,32.840670,-119.085400,18.0,16.469,33.285,42.421,976.86,0.0,3.181,16.113,16.074, NaN,24.321,   NaN,14.71,1012.13,99.50,14.99,291.6,274.9,2.2,10.0,253.3,302.1,5.7,11.1,NaN, NaN,18.2,64.2,54.9,1120694964,1120694963,1,10.0,000563,000563,57.1,32.840625,-119.085550,10.24,NaN,NaN,16.473, NaN,NaN,NaN, NaN, NaN
20050707,000953,704499,32.841453,-119.083918,17.6,16.456,33.283,42.406,947.04,0.0,3.086,16.101,16.062, NaN,24.323,   NaN,14.74,1012.15,99.55,15.02,325.4,275.6,3.4,10.2,257.9,302.6,5.7,11.2,NaN, NaN,19.3,49.2,59.6,1120694994,1120694994,1,11.0,000593,000594,53.1,32.841438,-119.084015,10.45,NaN,NaN,16.460, NaN,NaN,NaN, NaN, NaN
20050707,001022,704527,32.842251,-119.082482,17.7,16.436,33.285,42.389,917.14,0.0,3.181,16.087,16.049, NaN,24.329,   NaN,14.70,1012.14,99.56,15.01,305.8,276.9,3.6,10.2,270.6,303.8,5.1,11.1,NaN, NaN,18.8,49.8,58.0,1120695024,1120695023,1,10.8,000623,000623,56.8,32.842210,-119.082632,10.33,NaN,NaN,16.440, NaN,NaN,NaN, NaN, NaN
20050707,001053,704559,32.843051,-119.081012,17.7,16.420,33.284,42.373,882.00,0.0,3.030,16.078,16.038, NaN,24.332,   NaN,14.68,1012.14,99.54,14.98,287.3,276.3,3.7,10.2,275.9,303.6,5.8,11.1,NaN, NaN,18.6,72.1,66.6,1120695054,1120695054,1,10.3,000653,000654,57.1,32.843031,-119.081107,10.46,NaN,NaN,16.424, NaN,NaN,NaN, NaN, NaN
20050707,001122,704588,32.843846,-119.079557,17.7,16.411,33.276,42.356,797.96,0.0,3.030,16.066,16.025, NaN,24.328,   NaN,14.75,1012.14,99.68,15.02,282.3,278.0,5.2,10.1,284.0,304.4,6.9,10.9,NaN, NaN,18.9,43.9,53.6,1120695084,1120695083,1,10.6,000683,000683,58.5,32.843801,-119.079700,10.33,NaN,NaN,16.415, NaN,NaN,NaN, NaN, NaN
20050707,001152,704618,32.844591,-119.078102,17.6,16.405,33.273,42.346,766.39,0.0,3.181,16.058,16.018, NaN,24.327,   NaN,14.73,1012.13,99.65,15.01,281.0,278.4,4.4,9.7,277.9,304.2,6.5,10.5,NaN, NaN,18.0,67.5,60.1,1120695114,1120695113,1,10.0,000713,000713,56.1,32.844550,-119.078255,10.23,NaN,NaN,16.409, NaN,NaN,NaN, NaN, NaN
20050707,001223,704649,32.845366,-119.076672,17.8,16.396,33.269,42.334,812.96,0.0,3.200,16.051,16.010, NaN,24.326,   NaN,14.71,1012.11,99.60,15.01,276.9,277.4,3.7,9.7,271.9,302.9,6.2,10.6,NaN, NaN,19.0,51.3,52.8,1120695144,1120695144,1,10.6,000743,000744,55.7,32.845350,-119.076767,10.07,NaN,NaN,16.400, NaN,NaN,NaN, NaN, NaN
20050707,001252,704677,32.846110,-119.075228,17.7,16.391,33.268,42.328,769.41,0.0,3.256,16.049,16.010, NaN,24.327,   NaN,14.71,1012.11,99.65,15.01,258.3,276.7,3.3,9.4,264.8,301.4,6.3,10.4,NaN, NaN,19.6,46.2,55.2,1120695174,1120695173,1,10.2,000773,000773,56.1,32.846075,-119.075387,9.87,NaN,NaN,16.395, NaN,NaN,NaN, NaN, NaN
20050707,001323,704709,32.846878,-119.073787,17.8,16.390,33.263,42.320,717.30,0.0,3.294,16.050,16.008, NaN,24.323,   NaN,14.74,1012.15,99.74,15.02,285.2,279.3,5.7,9.8,281.7,305.4,6.9,10.5,NaN, NaN,19.4,54.4,56.9,1120695204,1120695204,1,10.4,000803,000804,57.1,32.846870,-119.073890,10.37,NaN,NaN,16.394, NaN,NaN,NaN, NaN, NaN
20050707,001352,704738,32.847661,-119.072320,17.6,16.388,33.260,42.315,696.57,0.0,3.332,16.050,16.012, NaN,24.321,   NaN,14.68,1012.17,99.63,15.01,278.6,279.6,5.4,9.7,283.3,305.5,7.3,10.4,NaN, NaN,19.5,54.8,50.3,1120695234,1120695233,1,10.7,000833,000833,57.7,32.847620,-119.072470,10.45,NaN,NaN,16.392, NaN,NaN,NaN, NaN, NaN
20050707,001423,704768,32.848475,-119.070798,17.8,16.389,33.258,42.314,702.03,0.0,3.464,16.056,16.017, NaN,24.319,   NaN,14.67,1012.14,99.72,14.99,272.9,276.2,4.4,9.6,272.1,301.8,7.0,10.6,NaN, NaN,19.5,56.7,55.0,1120695264,1120695264,1,10.7,000864,000864,57.1,32.848435,-119.070952,10.42,NaN,NaN,16.393, NaN,NaN,NaN, NaN, NaN
20050707,001452,704798,32.849233,-119.069358,17.7,16.397,33.248,42.310,701.56,0.0,3.521,16.068,16.027, NaN,24.310,   NaN,14.80,1012.21,99.97,15.06,248.6,274.6,3.0,9.2,260.6,299.7,6.5,10.5,NaN, NaN,19.9,46.0,57.5,1120695294,1120695293,1,10.3,000893,000893,55.1,32.849190,-119.069510,10.68,NaN,NaN,16.401, NaN,NaN,NaN, NaN, NaN
20050707,001523,704829,32.850036,-119.067903,17.6,16.411,33.238,42.312,703.36,0.0,3.634,16.078,16.039, NaN,24.299,   NaN,14.84,1012.19,84.67,15.13,254.6,276.3,3.0,8.7,261.8,298.4,6.3,9.9,NaN, NaN,19.9,52.0,54.3,1120695324,1120695324,1,10.6,000923,000924,56.1,32.850018,-119.068010,10.38,NaN,NaN,16.415, NaN,NaN,NaN, NaN, NaN
20050707,001552,704857,32.850848,-119.066425,17.6,16.424,33.233,42.319,708.21,0.0,3.577,16.085,16.045, NaN,24.292,   NaN,14.74,1012.11,99.68,15.06,264.4,275.9,3.4,9.6,259.5,300.4,6.1,10.6,NaN, NaN,19.1,53.3,49.7,1120695354,1120695353,1,11.0,000953,000953,56.8,32.850788,-119.066582,10.55,NaN,NaN,16.428, NaN,NaN,NaN, NaN, NaN
20050707,001623,704889,32.851685,-119.064925,17.8,16.437,33.227,42.325,755.64,0.0,3.709,16.088,16.049, NaN,24.285,   NaN,14.65,1012.18,99.67,14.99,266.4,272.2,3.0,9.8,259.0,298.2,6.2,11.1,NaN, NaN,19.6,52.0,52.4,1120695384,1120695384,1,10.6,000984,000984,55.3,32.851630,-119.065078,10.34,NaN,NaN,16.441, NaN,NaN,NaN, NaN, NaN
20050707,001653,704918,32.852478,-119.063440,17.8,16.440,33.232,42.333,765.94,0.0,3.747,16.094,16.057, NaN,24.288,   NaN,14.84,1012.19,100.00,41.68,270.8,276.5,4.3,9.0,264.9,299.7,7.3,10.0,NaN, NaN,19.3,52.8,54.4,1120695414,1120695414,1,10.3,001014,001014,56.8,32.852420,-119.063628,10.86,NaN,NaN,16.444, NaN,NaN,NaN, NaN, NaN
20050707,001722,704948,32.853258,-119.061998,17.9,16.443,33.233,42.337,785.01,0.0,3.747,16.097,16.059, NaN,24.288,   NaN,14.79,1012.23,99.82,15.11,281.0,281.3,5.0,9.3,274.3,304.6,7.3,9.9,NaN, NaN,19.7,65.9,61.7,1120695444,1120695443,1,10.4,001043,001043,55.8,32.853201,-119.062175,10.66,NaN,NaN,16.447, NaN,NaN,NaN, NaN, NaN
20050707,001752,704978,32.854076,-119.060537,17.7,16.443,33.230,42.334,781.34,0.0,3.728,16.100,16.062, NaN,24.285,   NaN,14.79,1012.22,99.90,15.11,288.9,278.6,4.8,9.2,280.3,301.8,6.4,10.0,NaN, NaN,19.0,44.4,55.3,1120695474,1120695473,1,10.5,001073,001073,55.8,32.854016,-119.060692,10.57,NaN,NaN,16.447, NaN,NaN,NaN, NaN, NaN
20050707,001822,705007,32.854883,-119.059070,17.8,16.443,33.231,42.335,731.80,0.0,3.785,16.103,16.066, NaN,24.286,   NaN,14.75,1012.19,99.80,15.06,282.7,278.3,4.8,9.1,279.9,301.7,6.7,9.9,NaN, NaN,19.0,64.5,58.1,1120695504,1120695503,1,10.5,001103,001103,57.6,32.854836,-119.059227,10.57,NaN,NaN,16.447, NaN,NaN,NaN, NaN, NaN
20050707,001852,705037,32.855675,-119.057620,17.6,16.448,33.227,42.335,704.77,0.0,3.521,16.108,16.070, NaN,24.283,   NaN,14.79,1012.20,99.94,15.09,275.7,275.3,2.3,8.8,251.4,299.1,5.9,9.9,NaN, NaN,20.0,53.6,52.3,1120695534,1120695533,1,10.7,001133,001133,57.4,32.855621,-119.057765,10.37,NaN,NaN,16.452, NaN,NaN,NaN, NaN, NaN
20050707,001922,705068,32.856460,-119.056180,17.7,16.452,33.224,42.335,716.72,0.0,3.540,16.114,16.076, NaN,24.279,   NaN,14.80,1012.21,99.94,15.12,286.7,272.0,0.7,8.3,239.6,295.2,5.4,9.7,NaN, NaN,20.1,55.8,58.3,1120695564,1120695563,1,10.8,001163,001163,55.9,32.856415,-119.056332,10.50,NaN,NaN,16.456, NaN,NaN,NaN, NaN, NaN
20050707,001952,705098,32.857270,-119.054725,17.7,16.461,33.219,42.338,720.71,0.0,3.577,16.120,16.083, NaN,24.273,   NaN,14.81,1012.22,99.93,15.11,299.5,274.4,2.2,8.4,252.2,296.9,5.7,9.6,NaN, NaN,19.3,61.9,55.1,1120695594,1120695593,1,10.5,001193,001193,57.0,32.857225,-119.054885,10.53,NaN,NaN,16.465, NaN,NaN,NaN, NaN, NaN
20050707,002022,705128,32.858085,-119.053247,17.7,16.469,33.214,42.340,695.92,0.0,3.653,16.124,16.086, NaN,24.268,   NaN,14.75,1012.20,99.84,15.08,284.3,276.7,3.5,8.4,266.0,297.9,6.2,9.5,NaN, NaN,19.3,52.0,58.2,1120695624,1120695623,1,11.0,001223,001223,56.1,32.858036,-119.053405,10.60,NaN,NaN,16.473, NaN,NaN,NaN, NaN, NaN
20050707,002052,705158,32.858901,-119.051792,17.7,16.473,33.215,42.344,664.73,0.0,3.860,16.127,16.089, NaN,24.267,   NaN,14.76,1012.19,100.00,75.90,287.3,278.2,5.0,8.5,276.1,299.0,7.0,9.5,NaN, NaN,19.2,55.5,59.7,1120695654,1120695653,1,10.4,001253,001253,53.8,32.858848,-119.051960,10.47,NaN,NaN,16.477, NaN,NaN,NaN, NaN, NaN
20050707,002123,705189,32.859696,-119.050362,17.6,16.473,33.212,42.341,683.36,0.0,3.672,16.130,16.093, NaN,24.265,   NaN,14.80,1012.16,72.60,15.10,276.8,279.2,4.7,8.9,278.8,301.7,6.9,9.7,NaN, NaN,19.8,53.6,60.0,1120695684,1120695684,1,10.7,001283,001284,55.8,32.859670,-119.050475,10.47,NaN,NaN,16.477, NaN,NaN,NaN, NaN, NaN
20050707,002153,705219,32.860518,-119.048928,17.7,16.476,33.210,42.342,691.95,0.0,3.898,16.133,16.094, NaN,24.262,   NaN,14.73,1012.20,99.83,15.05,292.3,277.2,3.6,8.6,268.4,299.6,5.3,9.6,NaN, NaN,19.4,48.4,52.3,1120695714,1120695714,1,10.4,001313,001314,57.6,32.860491,-119.049038,10.73,NaN,NaN,16.480, NaN,NaN,NaN, NaN, NaN
20050707,002222,705248,32.861336,-119.047483,17.7,16.483,33.207,42.345,683.42,0.0,3.747,16.138,16.097, NaN,24.259,   NaN,14.71,1012.14,99.88,15.04,293.7,276.9,4.2,9.0,275.0,299.9,5.6,9.9,NaN, NaN,19.4,45.8,51.7,1120695744,1120695743,1,11.1,001343,001343,57.3,32.861276,-119.047635,10.45,NaN,NaN,16.487, NaN,NaN,NaN, NaN, NaN
20050707,002253,705278,32.862136,-119.045967,17.5,16.484,33.208,42.347,655.56,0.0,3.709,16.143,16.103, NaN,24.259,   NaN,14.70,1012.19,99.85,15.01,285.6,278.9,4.3,9.0,279.1,302.4,6.0,9.8,NaN, NaN,19.1,60.6,64.1,1120695775,1120695774,1,10.5,001374,001374,56.3,32.862083,-119.046130,10.55,NaN,NaN,16.488, NaN,NaN,NaN, NaN, NaN
20050707,002322,705308,32.862933,-119.044573,17.6,16.487,33.202,42.343,639.37,0.0,3.596,16.149,16.111, NaN,24.254,   NaN,14.79,1012.18,100.00,41.68,283.0,280.3,5.4,9.0,286.7,303.3,6.8,9.7,NaN, NaN,18.5,62.3,53.0,1120695804,1120695803,1,10.4,001403,001403,56.6,32.862873,-119.044732,10.63,NaN,NaN,16.491, NaN,NaN,NaN, NaN, NaN
20050707,002352,705337,32.863733,-119.043117,17.8,16.493,33.204,42.351,642.00,0.0,3.540,16.150,16.113, NaN,24.254,   NaN,14.85,1012.18,100.00,26.77,286.8,279.7,4.7,8.8,277.5,301.7,6.4,9.6,NaN, NaN,19.5,47.8,52.7,1120695834,1120695833,1,10.5,001433,001433,57.0,32.863671,-119.043270,10.32,NaN,NaN,16.497, NaN,NaN,NaN, NaN, NaN
20050707,002423,705369,32.864565,-119.041607,17.7,16.499,33.202,42.355,637.89,0.0,3.558,16.151,16.114, NaN,24.251,   NaN,14.92,1012.23,100.00,15.15,307.0,280.5,4.5,8.1,277.9,299.7,5.4,8.9,NaN, NaN,19.7,54.4,61.2,1120695864,1120695864,1,10.7,001464,001464,55.5,32.864510,-119.041765,10.80,NaN,NaN,16.503, NaN,NaN,NaN, NaN, NaN
20050707,002453,705399,32.865398,-119.040162,17.7,16.500,33.201,42.355,623.07,0.0,3.464,16.152,16.115, NaN,24.250,   NaN,14.93,1012.16,42.11,15.20,290.5,281.4,5.9,8.5,286.8,302.1,6.9,9.2,NaN, NaN,18.7,62.0,52.2,1120695895,1120695894,1,10.1,001494,001494,58.4,32.865340,-119.040318,10.74,NaN,NaN,16.504, NaN,NaN,NaN, NaN, NaN
20050707,002522,705428,32.866185,-119.038738,17.9,16.503,33.208,42.365,618.35,0.0,3.521,16.156,16.118, NaN,24.255,   NaN,14.81,1012.13,99.88,15.14,285.6,278.9,6.7,9.1,292.5,301.5,7.7,9.9,NaN, NaN,19.4,48.5,57.3,1120695924,1120695923,1,11.1,001523,001523,56.7,32.866136,-119.038888,10.71,NaN,NaN,16.507, NaN,NaN,NaN, NaN, NaN
20050707,002553,705458,32.867035,-119.037232,17.7,16.502,33.200,42.356,629.28,0.0,3.464,16.158,16.120, NaN,24.249,   NaN,14.79,1012.19,100.00,72.23,294.7,277.6,4.8,8.7,280.2,299.7,6.1,9.7,NaN, NaN,18.9,45.6,55.2,1120695955,1120695954,1,10.8,001554,001554,56.4,32.866981,-119.037377,10.61,NaN,NaN,16.506, NaN,NaN,NaN, NaN, NaN
20050707,002623,705489,32.867856,-119.035757,17.7,16.505,33.195,42.352,615.80,0.0,3.615,16.166,16.124, NaN,24.244,   NaN,14.95,1012.15,100.00,15.17,281.4,280.1,4.7,8.1,279.4,299.5,6.7,9.0,NaN, NaN,19.3,54.4,55.9,1120695984,1120695984,1,11.0,001584,001584,55.6,32.867803,-119.035908,10.59,NaN,NaN,16.509, NaN,NaN,NaN, NaN, NaN
20050707,002653,705519,32.868685,-119.034290,17.6,16.507,33.193,42.352,597.12,0.0,3.747,16.167,16.127, NaN,24.243,   NaN,14.92,1012.21,100.00,48.31,291.1,278.2,3.0,7.9,262.7,296.8,5.8,9.0,NaN, NaN,18.7,47.1,52.5,1120696015,1120696014,1,10.7,001614,001614,55.3,32.868630,-119.034437,10.76,NaN,NaN,16.511, NaN,NaN,-0.2, NaN, NaN
20050707,002723,705549,32.869490,-119.032892,17.8,16.514,33.190,42.356,647.34,0.0,3.709,16.170,16.127, NaN,24.239,   NaN,14.89,1012.20,41.39,15.18,303.2,277.4,2.6,8.0,252.4,296.5,5.8,9.1,NaN, NaN,19.3,64.6,59.3,1120696044,1120696044,1,10.6,001643,001644,57.3,32.869458,-119.032992,10.64,NaN,NaN,16.518, NaN,NaN,-0.2, NaN, NaN
20050707,002753,705578,32.870330,-119.031368,17.6,16.515,33.192,42.359,652.06,0.0,3.521,16.168,16.127, NaN,24.240,   NaN,14.84,1012.16,84.32,15.16,294.2,277.7,3.3,8.5,263.3,299.2,6.0,9.5,NaN, NaN,18.5,56.4,53.8,1120696075,1120696074,1,10.3,001674,001674,58.0,32.870275,-119.031525,10.81,NaN,NaN,16.519, NaN,NaN,-0.2, NaN, NaN
20050707,002823,705608,32.871151,-119.029897,17.7,16.516,33.194,42.362,610.40,0.0,3.540,16.168,16.127, NaN,24.241,   NaN,14.87,1012.17,100.00,23.54,289.5,279.3,4.7,8.5,280.7,300.2,6.4,9.3,NaN, NaN,19.2,47.9,52.0,1120696105,1120696105,1,10.8,001704,001705,55.0,32.871135,-119.030005,10.65,NaN,NaN,16.520, NaN,NaN,-0.2, NaN, NaN
20050707,002853,705639,32.871975,-119.028430,17.8,16.514,33.190,42.356,567.19,0.0,3.615,16.167,16.126, NaN,24.239,   NaN,14.85,1012.15,58.49,15.17,284.0,281.0,5.8,8.3,287.4,300.6,7.2,9.1,NaN, NaN,19.2,59.3,54.5,1120696135,1120696134,1,10.9,001734,001734,56.5,32.871938,-119.028580,10.89,NaN,NaN,16.518, NaN,NaN,-0.2, NaN, NaN
20050707,002923,705669,32.872793,-119.026950,17.6,16.511,33.189,42.350,573.09,0.0,3.634,16.166,16.123, NaN,24.238,   NaN,14.83,1012.15,100.00,73.42,293.0,279.3,4.3,8.4,272.9,299.6,6.2,9.3,NaN, NaN,19.7,67.3,59.3,1120696164,1120696164,1,10.9,001764,001764,56.5,32.872761,-119.027102,10.68,NaN,NaN,16.515, NaN,NaN,NaN, NaN, NaN
20050707,002953,705699,32.873575,-119.025508,17.7,16.508,33.191,42.350,638.29,0.0,3.653,16.162,16.123, NaN,24.241,   NaN,14.90,1012.13,24.27,15.19,306.4,280.9,4.5,8.6,278.7,301.6,5.5,9.3,NaN, NaN,19.3,54.8,59.4,1120696194,1120696193,1,10.8,001793,001793,57.1,32.873545,-119.025662,10.98,NaN,NaN,16.512, NaN,NaN,NaN, NaN, NaN
20050707,003023,705729,32.874403,-119.024037,17.7,16.504,33.187,42.343,633.36,0.0,3.502,16.161,16.122, NaN,24.239,   NaN,14.83,1012.13,99.99,15.15,286.5,280.0,5.5,8.8,288.8,301.5,6.5,9.5,NaN, NaN,19.2,61.6,57.1,1120696224,1120696224,1,10.7,001823,001824,57.5,32.874398,-119.024138,10.87,NaN,NaN,16.508, NaN,NaN,NaN, NaN, NaN
20050707,003053,705758,32.875243,-119.022522,17.6,16.504,33.187,42.342,585.07,0.0,3.709,16.157,16.118, NaN,24.238,   NaN,14.81,1012.18,100.00,72.31,291.0,277.1,2.7,8.1,253.5,296.9,6.4,9.2,NaN, NaN,19.4,48.1,56.1,1120696255,1120696254,1,10.9,001854,001854,54.6,32.875201,-119.022665,10.75,NaN,NaN,16.508, NaN,NaN,NaN, NaN, NaN
20050707,003123,705788,32.876070,-119.021050,17.6,16.505,33.185,42.341,569.35,0.0,3.634,16.153,16.114, NaN,24.237,   NaN,14.87,1012.16,100.00,15.16,311.5,278.9,2.4,7.8,258.1,296.7,5.1,8.9,NaN, NaN,18.5,46.3,47.1,1120696285,1120696284,1,10.9,001884,001884,57.6,32.876035,-119.021195,10.87,NaN,NaN,16.509, NaN,NaN,NaN, NaN, NaN
20050707,003153,705819,32.876888,-119.019608,17.6,16.501,33.185,42.338,575.86,0.0,3.558,16.151,16.114, NaN,24.238,   NaN,14.85,1012.17,100.00,31.55,282.1,278.4,3.3,8.3,262.7,298.1,6.2,9.3,NaN, NaN,19.5,57.0,48.6,1120696315,1120696314,1,11.1,001914,001914,57.1,32.876851,-119.019760,10.63,NaN,NaN,16.505, NaN,NaN,NaN, NaN, NaN
20050707,003223,705849,32.877675,-119.018157,17.8,16.494,33.184,42.330,567.62,0.0,3.766,16.152,16.115, NaN,24.238,   NaN,14.88,1012.16,100.00,15.17,278.8,275.8,3.1,7.6,262.4,294.8,6.3,8.9,NaN, NaN,19.0,62.9,56.8,1120696345,1120696344,1,10.6,001944,001944,56.9,32.877636,-119.018307,10.49,NaN,NaN,16.498, NaN,NaN,NaN, NaN, NaN
20050707,003253,705879,32.878485,-119.016687,17.8,16.494,33.182,42.328,559.13,0.0,3.577,16.155,16.118, NaN,24.237,   NaN,14.92,1012.17,100.00,15.18,285.9,277.2,3.0,7.9,265.1,296.9,5.7,9.0,NaN, NaN,18.8,52.7,52.1,1120696375,1120696374,1,10.5,001974,001974,58.1,32.878453,-119.016838,10.68,NaN,NaN,16.498, NaN,NaN,NaN, NaN, NaN
20050707,003324,705910,32.879298,-119.015218,17.8,16.500,33.176,42.327,543.19,0.0,3.634,16.161,16.123, NaN,24.231,   NaN,14.90,1012.18,100.00,15.18,299.3,276.8,3.2,8.4,263.1,298.2,5.7,9.4,NaN, NaN,19.4,60.4,58.5,1120696405,1120696405,1,10.5,002004,002005,57.3,32.879291,-119.015322,10.66,NaN,NaN,16.504, NaN,NaN,NaN, NaN, NaN
20050707,003354,705940,32.880126,-119.013757,17.8,16.505,33.172,42.327,545.69,0.0,3.577,16.168,16.126, NaN,24.227,   NaN,14.89,1012.14,100.00,15.17,312.7,276.9,2.6,8.4,257.5,298.2,5.5,9.5,NaN, NaN,19.2,52.3,53.7,1120696435,1120696435,1,10.6,002034,002035,57.5,32.880118,-119.013857,10.90,NaN,NaN,16.509, NaN,NaN,NaN, NaN, NaN
20050707,003424,705970,32.880935,-119.012278,17.7,16.512,33.169,42.330,520.01,0.0,3.577,16.173,16.135, NaN,24.223,   NaN,14.76,1012.18,99.88,15.12,297.7,278.8,4.2,8.7,273.6,300.4,6.0,9.6,NaN, NaN,19.5,57.2,56.3,1120696465,1120696465,1,10.5,002064,002065,56.7,32.880920,-119.012378,10.54,NaN,NaN,16.516, NaN,NaN,NaN, NaN, NaN
20050707,003453,705999,32.881738,-119.010817,17.6,16.521,33.168,42.337,482.58,0.0,3.766,16.177,16.140, NaN,24.220,   NaN,14.81,1012.14,100.00,22.77,289.6,276.5,3.5,8.1,269.9,296.9,5.9,9.2,NaN, NaN,19.8,48.8,51.2,1120696495,1120696495,1,11.1,002094,002095,57.1,32.881731,-119.010918,10.45,NaN,NaN,16.525, NaN,NaN,NaN, NaN, NaN
20050707,003523,706029,32.882553,-119.009378,17.7,16.527,33.168,42.342,455.41,0.0,3.653,16.183,16.143, NaN,24.219,   NaN,14.92,1012.15,100.00,15.17,277.1,276.8,3.6,7.8,269.2,296.3,6.3,9.0,NaN, NaN,19.3,57.9,52.2,1120696524,1120696524,1,10.5,002124,002124,57.8,32.882511,-119.009532,10.55,NaN,NaN,16.531, NaN,NaN,NaN, NaN, NaN
20050707,003553,706059,32.883358,-119.007907,17.8,16.530,33.169,42.346,465.21,0.0,3.672,16.184,16.147, NaN,24.218,   NaN,14.98,1012.17,100.00,15.22,273.4,278.7,5.1,8.0,281.2,298.2,7.1,9.0,NaN, NaN,19.4,56.4,58.4,1120696555,1120696554,1,10.9,002154,002154,55.6,32.883313,-119.008058,10.64,NaN,NaN,16.534, NaN,NaN,NaN, NaN, NaN
20050707,003624,706090,32.884200,-119.006457,17.7,16.534,33.169,42.350,469.60,0.0,3.709,16.186,16.148, NaN,24.218,   NaN,14.98,1012.19,100.00,15.26,285.3,279.9,5.2,8.3,285.3,299.7,6.5,9.1,NaN, NaN,19.0,58.6,53.1,1120696585,1120696584,1,10.3,002184,002184,57.3,32.884155,-119.006617,10.77,NaN,NaN,16.538, NaN,NaN,NaN, NaN, NaN